Weather reports worldwide

Advertisment
Marseille/Marignane, France (7650): temperature & dewpoint: 08.07.2020 12:00:00 - 14.07.2020 12:00:00 (CEST)Marseille/Marignane, France (7650): temperature 5cm: 08.07.2020 12:00:00 - 14.07.2020 12:00:00 (CEST)Marseille/Marignane, France (7650): temperature -20cm & temperature -100cm: 08.07.2020 12:00:00 - 14.07.2020 12:00:00 (CEST)Marseille/Marignane, France (7650): wind speed & gusts: 08.07.2020 12:00:00 - 14.07.2020 12:00:00 (CEST)Marseille/Marignane, France (7650): wind direction: 08.07.2020 12:00:00 - 14.07.2020 12:00:00 (CEST)Marseille/Marignane, France (7650): reduced air pressure: 08.07.2020 12:00:00 - 14.07.2020 12:00:00 (CEST)Marseille/Marignane, France (7650): visibility: 08.07.2020 12:00:00 - 14.07.2020 12:00:00 (CEST)Marseille/Marignane, France (7650): sunshine duration: 08.07.2020 12:00:00 - 14.07.2020 12:00:00 (CEST)Marseille/Marignane, France (7650): precipitation: 08.07.2020 12:00:00 - 14.07.2020 12:00:00 (CEST)
Date & Time tt [°C] td [°C] tt 5cm [°C] tt -20cm [°C] tt -100cm [°C] ff [km/h] ff [kn] fx [km/h] fx [kn] dd ppp [hPa] vv [km] sd [min] rr [mm]
14.07.2020 12:00:00 27,2 10,4 33,5 25,5 21,2 16 9 24 13 WSW 1014,7 41 60 0,0
14.07.2020 11:00:00 26,7 9,5 30,9 25,4 21,2 13 7 19 10 W 1015,0 39 60 0,0
14.07.2020 10:00:00 24,1 14,8 29,7 25,5 21,2 6 3 13 7 WSW 1015,3 20 60 0,0
14.07.2020 09:00:00 23,4 13,8 25,7 25,6 21,2 5 3 13 7 NNW 1015,3 36 60 0,0
14.07.2020 08:00:00 21,3 14,5 18,6 25,8 21,2 10 5 16 9 N 1015,3 32 60 0,0
14.07.2020 07:00:00 18,2 14,5 14,1 26,1 21,2 7 4 14 8 SSE 1015,4 30 25 0,0
14.07.2020 06:00:00 17,6 14,5 13,6 26,4 21,2 12 7 16 8 SE 1015,2 20 0 0,0
14.07.2020 05:00:00 18,6 14,9 14,7 26,7 21,2 7 4 11 6 SSE 1015,1 34 0 0,0
14.07.2020 04:00:00 18,7 15,0 15,2 27,0 21,2 7 4 14 7 SSE 1015,1 35 0 0,0
14.07.2020 03:00:00 20,2 15,8 15,4 27,3 21,2 3 1 8 4 ESE 1015,3 40 0 0,0
14.07.2020 02:00:00 21,7 16,2 16,7 27,6 21,2 5 3 11 6 ESE 1015,3 46 0 0,0
14.07.2020 01:00:00 22,7 16,5 16,9 27,9 21,2 5 3 9 5 NE 1015,3 51 0 0,0
14.07.2020 00:00:00 23,0 17,5 18,8 28,2 21,2 3 2 19 10 S 1015,6 60 0 0,0
13.07.2020 23:00:00 23,4 16,4 18,3 28,4 21,2 9 5 12 7 S 1015,7 58 0 0,0
13.07.2020 22:00:00 23,4 17,6 19,4 28,7 21,1 7 4 16 9 SE 1015,7 53 0 0,0
13.07.2020 21:00:00 24,4 16,9 23,4 28,8 21,1 13 7 25 14 SE 1015,6 57 53 0,0
13.07.2020 20:00:00 26,5 16,1 29,1 28,8 21,2 17 9 24 13 S 1015,6 48 60 0,0
13.07.2020 19:00:00 27,4 16,7 31,6 28,7 21,1 17 9 30 16 S 1015,7 26 60 0,0
13.07.2020 18:00:00 27,9 16,2 33,4 28,4 21,2 23 13 35 19 S 1015,9 24 60 0,0
13.07.2020 17:00:00 29,3 15,1 36,1 28,1 21,2 25 13 35 19 S 1016,2 25 60 0,0
13.07.2020 16:00:00 29,7 14,7 37,6 27,6 21,1 22 12 39 21 S 1016,8 28 60 0,0
13.07.2020 15:00:00 30,1 15,0 35,2 27,2 21,1 22 12 36 20 S 1017,3 30 52 0,0
13.07.2020 14:00:00 29,7 14,3 36,1 26,7 21,1 19 10 34 18 S 1017,7 32 52 0,0
13.07.2020 13:00:00 29,5 14,9 34,8 26,4 21,1 22 12 35 19 S 1018,1 31 58 0,0
13.07.2020 12:00:00 28,2 16,5 34,4 26,1 21,1 9 5 14 7 WNW 1018,4 20 60 0,0
13.07.2020 11:00:00 27,2 18,5 29,2 25,9 21,1 8 4 15 8 W 1018,5 20 48 0,0
13.07.2020 10:00:00 24,8 19,6 28,0 25,9 21,1 11 6 15 8 W 1018,5 17 34 0,0
13.07.2020 09:00:00 24,4 19,2 27,5 26,0 21,1 8 4 11 6 WNW 1018,3 19 50 0,0
13.07.2020 08:00:00 24,2 19,5 21,5 26,1 21,1 2 1 8 4 S 1018,2 19 18 0,0
13.07.2020 07:00:00 22,9 18,7 20,1 26,3 21,1 4 2 11 6 N 1018,0 24 0 0,0
13.07.2020 06:00:00 22,1 17,9 19,1 26,4 21,0 8 4 9 5 SSE 1017,9 23 0 0,0
13.07.2020 05:00:00 21,9 17,7 20,5 26,7 21,1 6 4 9 5 SE 1017,9 25 0 0,0
13.07.2020 04:00:00 22,5 18,1 19,1 26,9 21,1 6 3 10 5 S 1018,2 24 0 0,0
13.07.2020 03:00:00 23,2 17,9 20,8 27,1 21,0 6 3 11 6 ENE 1018,3 28 0 0,0
13.07.2020 02:00:00 22,7 18,0 20,4 27,3 21,1 5 3 10 5 SSW 1018,7 28 0 0,0
13.07.2020 01:00:00 22,7 17,6 19,6 27,5 21,0 10 6 14 8 ESE 1018,8 30 0 0,0
13.07.2020 00:00:00 23,8 18,7 19,6 27,8 21,0 3 2 11 6 ESE 1018,9 36 0 0,0
12.07.2020 23:00:00 24,0 18,9 21,8 28,0 21,0 9 5 11 6 WSW 1018,6 36 0 0,0
12.07.2020 22:00:00 25,0 18,0 21,9 28,2 21,0 5 3 10 5 SSW 1017,5 41 0 0,0
12.07.2020 21:00:00 26,0 17,9 25,2 28,2 21,0 7 4 18 10 SSE 1017,0 46 31 0,0
12.07.2020 20:00:00 26,7 17,7 27,1 28,3 21,0 13 7 21 11 S 1017,7 46 0 0,0
12.07.2020 19:00:00 27,6 18,3 29,0 28,1 21,0 16 9 23 13 SSW 1017,7 40 0 0,0
12.07.2020 18:00:00 28,0 18,1 30,5 27,9 21,0 16 9 31 17 SSW 1017,6 34 28 0,0
12.07.2020 17:00:00 30,1 18,2 36,5 27,4 21,0 19 11 30 16 SW 1017,6 20 60 0,0
12.07.2020 16:00:00 30,4 18,8 36,5 26,8 21,0 18 10 29 16 WSW 1017,8 35 60 0,0
12.07.2020 15:00:00 30,4 17,8 37,6 26,3 21,0 18 10 29 16 WSW 1018,0 20 60 0,0
12.07.2020 14:00:00 29,9 17,4 34,6 25,8 21,0 17 9 23 12 W 1018,0 20 53 0,0
12.07.2020 13:00:00 28,8 15,3 34,8 25,3 21,0 15 8 22 12 W 1017,7 19 60 0,0
12.07.2020 12:00:00 27,7 15,7 34,2 25,0 21,0 17 9 23 12 W 1017,8 56 60 0,0
12.07.2020 11:00:00 25,9 14,0 32,3 24,8 21,0 12 7 18 10 WSW 1017,6 60 60 0,0
12.07.2020 10:00:00 24,2 12,5 29,0 24,8 21,0 6 3 10 5 W 1017,9 56 60 0,0
12.07.2020 09:00:00 22,3 11,7 24,9 25,0 21,0 5 3 9 5 NNW 1017,8 59 60 0,0
12.07.2020 08:00:00 20,3 11,5 17,7 25,2 21,0 3 1 10 6 S 1017,4 42 60 0,0
12.07.2020 07:00:00 17,2 10,1 12,5 25,5 20,9 3 2 12 6 SSE 1017,0 40 26 0,0
12.07.2020 06:00:00 16,3 9,0 11,8 25,8 20,9 8 5 17 9 SE 1016,3 60 0 0,0
12.07.2020 05:00:00 16,9 8,6 12,5 26,1 20,9 8 5 14 8 SE 1016,1 60 0 0,0
12.07.2020 04:00:00 18,4 8,4 14,8 26,4 20,9 10 5 17 9 N 1016,0 60 0 0,0
12.07.2020 03:00:00 20,8 8,4 18,6 26,7 20,9 14 7 27 14 NW 1016,0 60 0 0,0
12.07.2020 02:00:00 22,8 8,9 20,5 26,9 20,9 13 7 28 15 NW 1015,6 60 0 0,0
12.07.2020 01:00:00 23,2 8,8 21,8 27,3 20,9 21 12 49 26 NNW 1015,6 60 0 0,0
12.07.2020 00:00:00 24,2 9,0 23,3 27,5 20,9 31 17 51 28 NW 1015,1 60 0 0,0
11.07.2020 23:00:00 25,0 9,3 23,9 27,8 20,9 30 16 47 25 NW 1015,5 60 0 0,0
11.07.2020 22:00:00 25,7 10,7 24,7 28,0 20,9 33 18 59 32 NW 1015,3 60 0 0,0
11.07.2020 21:00:00 26,8 12,1 26,3 28,2 20,9 36 19 56 30 NW 1014,7 31 55 0,0
11.07.2020 20:00:00 28,2 12,1 29,2 28,2 20,9 42 23 62 34 NW 1014,5 15 60 0,0
11.07.2020 19:00:00 29,0 11,5 32,1 28,1 20,9 43 23 68 37 NW 1014,1 14 60 0,0
11.07.2020 18:00:00 29,7 12,2 33,9 27,9 20,9 39 21 61 33 NW 1014,3 14 60 0,0
11.07.2020 17:00:00 30,5 13,3 35,1 27,5 20,9 40 22 60 33 NW 1014,7 14 60 0,0
11.07.2020 16:00:00 29,9 12,3 35,9 27,1 20,9 39 21 58 31 NW 1014,8 16 60 0,0
11.07.2020 15:00:00 30,4 13,7 35,6 26,7 20,9 38 20 59 32 WNW 1015,2 17 60 0,0
11.07.2020 14:00:00 29,6 14,6 35,3 26,3 20,9 36 20 56 30 NNW 1015,3 21 60 0,0
11.07.2020 13:00:00 29,0 14,8 33,9 25,9 20,9 33 18 54 29 NW 1015,6 23 60 0,0
11.07.2020 12:00:00 27,7 15,4 32,3 25,8 20,9 35 19 46 25 NW 1015,7 26 60 0,0
11.07.2020 11:00:00 26,7 16,0 30,5 25,7 20,8 29 15 47 25 NW 1015,6 31 60 0,0
11.07.2020 10:00:00 25,3 15,9 28,0 25,8 20,8 30 16 42 23 NW 1015,7 37 60 0,0
11.07.2020 09:00:00 24,0 16,0 24,7 26,0 20,9 23 13 40 21 NW 1015,6 42 60 0,0
11.07.2020 08:00:00 22,9 15,0 22,4 26,2 20,8 30 16 41 22 NNW 1015,5 45 60 0,0
11.07.2020 07:00:00 22,4 15,5 20,8 26,4 20,8 17 9 24 13 NW 1015,1 35 27 0,0
11.07.2020 06:00:00 21,9 16,8 21,0 26,6 20,8 16 9 22 12 NW 1014,7 59 0 0,0
11.07.2020 05:00:00 22,7 18,0 21,7 26,8 20,8 14 7 24 13 NW 1014,4 49 0 0,0
11.07.2020 04:00:00 23,1 18,8 22,1 27,0 20,8 16 9 23 12 NW 1014,4 35 0 0,0
11.07.2020 03:00:00 23,3 20,1 21,3 27,3 20,8 13 7 20 11 W 1014,6 26 0 0,0
11.07.2020 02:00:00 23,5 19,6 20,1 27,5 20,8 14 8 19 10 NW 1014,7 25 0 0,0
11.07.2020 01:00:00 23,9 18,1 20,4 27,7 20,8 2 1 15 8 W 1014,5 30 0 0,0
11.07.2020 00:00:00 23,8 18,4 21,3 28,0 20,8 6 3 11 6 SE 1014,4 33 0 0,0
10.07.2020 23:00:00 24,1 19,0 22,9 28,1 20,8 2 1 15 8 ESE 1014,4 29 0 0,0
10.07.2020 22:00:00 23,9 19,0 22,8 28,3 20,8 3 1 10 6 NNE 1014,5 29 0 0,0
10.07.2020 21:00:00 23,8 19,1 23,5 28,4 20,8 5 3 26 14 SW 1014,8 27 0 0,0
10.07.2020 20:00:00 25,0 18,9 26,4 28,4 20,8 10 6 24 13 SSW 1014,8 47 25 0,0
10.07.2020 19:00:00 24,4 19,5 29,7 28,3 20,8 14 7 38 21 SSE 1014,4 33 60 0,0
10.07.2020 18:00:00 26,5 19,9 30,8 28,1 20,8 29 16 44 24 S 1014,2 20 57 0,0
10.07.2020 17:00:00 28,9 17,7 35,4 27,7 20,8 27 15 45 24 S 1013,8 30 60 0,0
10.07.2020 16:00:00 31,5 17,0 38,1 27,2 20,8 24 13 37 20 S 1013,6 41 60 0,0
10.07.2020 15:00:00 30,9 16,5 37,6 26,7 20,8 13 7 18 10 W 1014,0 46 57 0,0
10.07.2020 14:00:00 30,8 16,4 37,8 26,2 20,8 15 8 19 10 WNW 1014,4 20 60 0,0
10.07.2020 13:00:00 29,4 16,6 37,5 25,7 20,8 17 9 22 12 WNW 1015,0 19 60 0,0
10.07.2020 12:00:00 29,6 13,4 36,5 25,4 20,8 6 3 24 13 SSE 1015,6 59 60 0,0
10.07.2020 11:00:00 28,5 12,0 35,1 25,3 20,7 12 7 23 12 SSE 1016,2 60 60 0,0
10.07.2020 10:00:00 26,8 13,9 31,7 25,2 20,7 10 5 22 12 SSE 1016,1 34 60 0,0
10.07.2020 09:00:00 25,6 13,8 26,1 25,3 20,7 10 6 22 12 SSE 1016,0 43 60 0,0
10.07.2020 08:00:00 23,3 16,1 19,7 25,5 20,7 11 6 16 9 SE 1015,9 35 60 0,0
10.07.2020 07:00:00 19,5 16,3 16,1 25,8 20,7 9 5 11 6 ESE 1016,1 16 25 0,0
10.07.2020 06:00:00 18,7 15,0 16,1 26,0 20,7 7 4 10 5 SE 1015,9 33 0 0,0
10.07.2020 05:00:00 20,0 15,4 16,3 26,3 20,7 8 5 11 6 SE 1015,5 32 0 0,0
10.07.2020 04:00:00 20,4 16,4 17,4 26,5 20,7 7 4 15 8 E 1014,9 22 0 0,0
10.07.2020 03:00:00 21,0 17,6 18,0 26,8 20,7 10 6 14 7 E 1015,5 14 0 0,0
10.07.2020 02:00:00 20,7 18,3 17,5 27,1 20,7 8 4 13 7 SE 1016,3 16 0 0,0
10.07.2020 01:00:00 20,8 19,3 17,9 27,3 20,7 11 6 13 7 ESE 1016,8 8 0 0,0
10.07.2020 00:00:00 21,3 18,7 17,8 27,6 20,7 7 4 10 6 SSE 1016,8 21 0 0,0
09.07.2020 23:00:00 22,0 18,6 20,0 27,8 20,7 8 4 21 11 SSE 1016,6 28 0 0,0
09.07.2020 22:00:00 22,9 17,1 20,9 28,0 20,7 10 5 23 12 S 1016,3 53 0 0,0
09.07.2020 21:00:00 23,8 16,8 23,3 28,1 20,7 15 8 29 16 S 1015,8 55 56 0,0
09.07.2020 20:00:00 26,3 16,2 28,4 28,1 20,7 11 6 29 16 S 1015,4 51 60 0,0
09.07.2020 19:00:00 28,4 15,3 32,5 27,9 20,7 19 10 26 14 S 1015,3 42 60 0,0
09.07.2020 18:00:00 30,7 15,2 37,0 27,4 20,7 11 6 20 11 W 1015,7 40 60 0,0
09.07.2020 17:00:00 29,9 15,2 36,4 27,0 20,7 17 9 27 14 WSW 1016,2 33 60 0,0
09.07.2020 16:00:00 30,2 15,1 37,4 26,3 20,6 18 10 23 12 W 1016,4 38 60 0,0
09.07.2020 15:00:00 30,6 13,8 38,2 25,7 20,7 14 7 22 12 W 1016,8 19 60 0,0
09.07.2020 14:00:00 29,1 13,3 36,3 25,2 20,6 14 7 23 12 WSW 1017,1 34 60 0,0
09.07.2020 13:00:00 28,3 13,8 36,3 24,7 20,6 14 8 21 11 W 1017,3 20 60 0,0
09.07.2020 12:00:00 27,2 13,2 33,5 24,4 20,7 15 8 22 12 W 1017,6 19 60 0,0
09.07.2020 11:00:00 26,0 13,8 32,0 24,3 20,6 14 7 17 9 W 1017,7 20 60 0,0
09.07.2020 10:00:00 24,7 12,6 30,0 24,3 20,6 9 5 16 9 WNW 1017,7 33 60 0,0
09.07.2020 09:00:00 24,1 11,8 26,5 24,5 20,7 4 2 14 8 NW 1016,8 40 60 0,0
09.07.2020 08:00:00 22,1 12,6 20,1 24,7 20,6 9 5 14 8 N 1016,2 51 60 0,0
09.07.2020 07:00:00 19,6 9,5 12,3 24,9 20,6 8 5 14 8 E 1016,1 37 28 0,0
09.07.2020 06:00:00 17,4 8,5 11,8 25,3 20,6 5 3 11 6 SSE 1016,2 52 0 0,0
09.07.2020 05:00:00 17,3 9,2 13,2 25,6 20,6 8 5 11 6 SE 1016,4 58 0 0,0
09.07.2020 04:00:00 19,0 9,5 13,6 25,9 20,6 11 6 16 8 ESE 1016,7 59 0 0,0
09.07.2020 03:00:00 18,1 9,7 13,7 26,2 20,6 9 5 14 8 SE 1017,0 60 0 0,0
09.07.2020 02:00:00 19,1 9,6 14,2 26,5 20,6 8 4 14 8 SE 1017,1 60 0 0,0
09.07.2020 01:00:00 18,5 10,3 14,5 26,9 20,6 12 6 14 7 ESE 1017,3 57 0 0,0
09.07.2020 00:00:00 21,0 8,9 15,4 27,2 20,6 5 3 10 5 SSE 1017,6 60 0 0,0
08.07.2020 23:00:00 21,5 8,7 18,5 27,5 20,6 7 4 12 6 SSE 1017,2 59 0 0,0
08.07.2020 22:00:00 22,6 10,1 19,8 27,7 20,6 8 4 13 7 S 1016,4 59 0 0,0
08.07.2020 21:00:00 25,7 10,3 24,3 27,8 20,6 9 5 14 8 WSW 1015,7 51 56 0,0
08.07.2020 20:00:00 26,9 10,6 28,9 27,8 20,6 10 6 21 12 SSW 1015,4 48 60 0,0
08.07.2020 19:00:00 27,6 10,3 31,9 27,6 20,6 14 8 30 16 SSW 1015,8 44 60 0,0
08.07.2020 18:00:00 28,2 10,4 33,5 27,2 20,7 21 11 28 15 SSW 1016,0 42 60 0,0
08.07.2020 17:00:00 28,7 11,3 35,2 26,8 20,6 18 10 27 14 SSW 1016,1 20 60 0,0
08.07.2020 16:00:00 29,5 10,1 39,3 26,2 20,6 10 5 25 14 SSW 1016,4 48 60 0,0
08.07.2020 15:00:00 28,7 9,9 37,0 25,6 20,5 14 8 26 14 S 1016,9 45 60 0,0
08.07.2020 14:00:00 29,0 8,6 38,0 25,0 20,6 16 9 31 17 SSE 1016,7 50 60 0,0
08.07.2020 13:00:00 29,6 9,2 35,1 24,6 20,6 16 9 28 15 SSW 1016,9 57 60 0,0
08.07.2020 12:00:00 27,0 10,2 33,5 24,3 20,5 7 4 12 6 WNW 1016,9 59 60 0,0

tt = temperature
td = dewpoint
tt 5cm = temperature 5cm
tt -20cm = temperature -20cm
tt -100cm = temperature -100cm
ff = wind speed
fx = gusts
dd = wind direction
ppp = reduced air pressure
vv = visibility
sd = sunshine duration
rr = precipitation

Next stations